INTELSAT 33E DEB, 64399

Orbit data source: Space-Track

INTELSAT 33E DEB, 64399 is space debris in GEO originally from a launch on Wed, 24 Aug 2016 UTC launched from the French Guiana (FRGUI). Debris objects in space refer to the collection of defunct objects orbiting the Earth. Examples of debris include non-operational satellites, rocket bodies, and fragments generated from explosions, collisions, or faulty payload assembly.

Not visible in the next 10 days
Identifier
64399, 2016-053AD
Orbit
GEO
Last TLE update
2 days ago
Origin
Flag of UnknownINTELU (Unknown / ITSO)
Manufacturer
Boeing/ES
Mission
Spacecraft
Bus & Motor
Unknown
Mass
Unknown
Launch date (UTC)
2016-08-24 (9 years ago)
Launch vehicle
Unknown
Launch site
French Guiana (FRGUI)
Object type
Payload
Rocket body
Debris
Shape & HBR
Unknown
Radar Cross Section
RCS unknown

Expand to show TLE details & history

TLE from 2 days ago
0 INTELSAT 33E DEB
1 64399U 16053AD  25180.85004666 -.00000367  00000-0  00000-0 0  9994
2 64399   0.7797  37.4572 0762593  43.6217 287.4894  0.98784626  2336
Epoch: 2025-06-29T20:24Z
TLE epoch observation values (Epoch: 2025-06-29T20:24:04.031Z)
Latitude
-0.48307°
Longitude
135.8176°
Altitude
35,470.505 km
Speed
3.113 km/s
True Right ascension
00h 00m 00s
True Declination
0° 28' 57"
Sunlit
Object was in daylight at epoch
Visualization orbit readout
Latitude
-0.02772°
Longitude
-5.12781°
Altitude
38,503.64 km
Speed
2.899 km/s
Apparent Right ascension
14h 14m 10s
Apparent Declination
-4° 58' 35"
Sunlit
Object is in daylight
Visualization observer readout
Local Sidereal Time
22:07:35
Azimuth
285.129° WNW
Elevation
-24.741°
Doppler factor
1
Orbital elements
Apogee altitude
39,457.516 km
Perigee altitude
32,962.065 km
Semi-major axis
42,587.927 km
Eccentricity
0.07626
Inclination
0.7797°
RAAN
37.4572°
Arg. of periapsis
43.6217°
True anomaly
Unknown
Mean anomaly
287.4894°
Eccentric anomaly
Unknown
Mean motion
0.24695 °/min
Orbital period
1,457.77 mins
BSTAR
0
Loading historical data...
64399 neighbors
Loading maneuver chart data...
Loading SW <> Apogee altitude chart data...
Loading historical data...
Loading historical data...
Loading historical data...
Loading historical data...
Loading historical data...
Loading historical data...
Loading historical data...

INTELSAT 33E DEB Visibility

Observer location: undefined°, undefined°

INTELSAT 33E DEB is likely not visible in the next few days
Span
Click to sort rows by Start time (UTC) header in descending order
Start Az.
Max El. time (UTC)
Max El. Az.
Max El.
End time (UTC)
End Az.
|